Weather History for Poplar Bluff, MO

Change the Weather History Date:

Wednesday, January 30, 2013

  Actual Average Record
Temperature  
Mean Temperature 44 °F -  
Max Temperature 55 °F 45 °F 73 °F (1931)
Min Temperature 33 °F 25 °F -2 °F (1966)
Degree Days  
Heating Degree Days 20    
Moisture  
Dew Point 40 °F    
Average Humidity 76    
Maximum Humidity 94    
Minimum Humidity 54    
Precipitation  
Precipitation 0.13 in - - ()
Sea Level Pressure  
Sea Level Pressure 29.60 in    
Wind  
Wind Speed 11 mph (WSW)    
Max Wind Speed 25 mph    
Max Gust Speed 36 mph    
Visibility 10 miles    
Events Rain    
Averages and records for this station are not official NWS values.
T = Trace of Precipitation, MM = Missing Value Source: NWS Daily Summary

Daily Weather History Graph

Daily Weather History Graph

Search for Another Location

Airport:

Trip Planner

Search our weather history database for the weather conditions in past years. The results will help you decide how hot, cold, wet, or windy it might be!

Date:

Astronomy

Jan. 30, 2013 Rise Set
Actual Time 7:04 AM CST 5:25 PM CST
Civil Twilight 6:37 AM CST 5:52 PM CST
Nautical Twilight 6:06 AM CST 6:23 PM CST
Astronomical Twilight 5:35 AM CST 6:53 PM CST
Moon 9:15 PM CST (1/30) 8:39 AM CST (1/30)
Length of Visible Light 11h 14m
Length of Day
10h 20m
Waning Gibbous, 87% of the Moon is Illuminated
Jan 30
Waning Gibbous
Feb 3
Last Quarter
Feb 10
New
Feb 17
First Quarter
Feb 25
Full

Hourly Weather History & Observations

Time (CST) Temp. Windchill Dew Point Humidity Pressure Visibility Wind Dir Wind Speed Gust Speed Precip Events Conditions
12:53 AM 54.0 °F - 52.0 °F 93% 29.55 in 6.0 mi South 3.5 mph - 0.11 in Rain Light Rain
1:53 AM 54.0 °F - 52.0 °F 93% 29.53 in 10.0 mi Calm Calm - 0.01 in Rain Light Rain
2:39 AM 53.6 °F - 51.8 °F 94% 29.51 in 10.0 mi SSE 6.9 mph - 0.00 in   Overcast
2:53 AM 54.0 °F - 52.0 °F 93% 29.49 in 10.0 mi SE 11.5 mph - 0.00 in   Overcast
3:29 AM 53.6 °F - 51.8 °F 94% 29.47 in 10.0 mi SSE 9.2 mph - N/A   Overcast
3:53 AM 54.0 °F - 52.0 °F 93% 29.49 in 10.0 mi South 8.1 mph - N/A   Overcast
4:53 AM 54.0 °F - 51.1 °F 90% 29.50 in 10.0 mi South 11.5 mph - N/A   Overcast
5:53 AM 54.0 °F - 51.1 °F 90% 29.48 in 10.0 mi South 9.2 mph - N/A   Overcast
6:48 AM 53.6 °F - 51.8 °F 94% 29.49 in 10.0 mi South 10.4 mph - N/A   Overcast
6:53 AM 54.0 °F - 51.1 °F 90% 29.47 in 10.0 mi SSW 9.2 mph - N/A   Overcast
7:07 AM 53.6 °F - 51.8 °F 94% 29.47 in 10.0 mi South 6.9 mph - N/A   Overcast
7:35 AM 53.6 °F - 51.8 °F 94% 29.47 in 10.0 mi SSW 8.1 mph - N/A   Mostly Cloudy
7:53 AM 54.0 °F - 51.1 °F 90% 29.47 in 10.0 mi South 9.2 mph - N/A   Mostly Cloudy
8:02 AM 53.6 °F - 51.8 °F 94% 29.47 in 10.0 mi SSW 10.4 mph - N/A   Mostly Cloudy
8:53 AM 55.0 °F - 51.1 °F 86% 29.47 in 10.0 mi SSW 17.3 mph - N/A   Partly Cloudy
9:34 AM 53.6 °F - 48.2 °F 82% 29.46 in 5.0 mi WSW 9.2 mph 21.9 mph 0.01 in Rain Light Rain
9:45 AM 53.6 °F - 48.2 °F 82% 29.48 in 10.0 mi West 10.4 mph - 0.01 in Rain Light Rain
9:53 AM 54.0 °F - 46.9 °F 77% 29.48 in 10.0 mi West 16.1 mph 21.9 mph 0.01 in   Overcast
10:29 AM 51.8 °F - 42.8 °F 71% 29.51 in 10.0 mi West 25.3 mph 32.2 mph N/A   Overcast
10:53 AM 48.9 °F - 39.0 °F 69% 29.50 in 10.0 mi WNW 24.2 mph 34.5 mph N/A   Overcast
11:24 AM 48.2 °F - 37.4 °F 66% 29.55 in 10.0 mi West 17.3 mph 27.6 mph N/A   Overcast
11:38 AM 46.4 °F 38.5 °F 35.6 °F 66% 29.54 in 10.0 mi WNW 21.9 mph 29.9 mph N/A   Overcast
11:53 AM 46.0 °F 38.3 °F 35.1 °F 66% 29.57 in 10.0 mi West 20.7 mph 28.8 mph N/A   Overcast
12:53 PM 46.9 °F - 32.0 °F 56% 29.56 in 10.0 mi West 19.6 mph 26.5 mph N/A   Mostly Cloudy
1:53 PM 44.1 °F 35.0 °F 30.0 °F 58% 29.60 in 10.0 mi WNW 24.2 mph 34.5 mph N/A   Overcast
2:53 PM 41.0 °F 31.6 °F 26.1 °F 55% 29.65 in 10.0 mi WNW 20.7 mph 35.7 mph N/A   Overcast
3:53 PM 39.0 °F 29.3 °F 25.0 °F 57% 29.72 in 10.0 mi WNW 19.6 mph 31.1 mph N/A   Overcast
4:53 PM 37.9 °F 27.9 °F 24.1 °F 57% 29.78 in 10.0 mi West 19.6 mph 26.5 mph N/A   Overcast
5:53 PM 37.0 °F 27.0 °F 24.1 °F 59% 29.81 in 10.0 mi West 18.4 mph 28.8 mph N/A   Overcast
6:53 PM 36.0 °F 26.3 °F 23.0 °F 59% 29.86 in 10.0 mi WNW 16.1 mph 25.3 mph N/A   Overcast
7:53 PM 36.0 °F 27.1 °F 23.0 °F 59% 29.89 in 10.0 mi WNW 13.8 mph 25.3 mph N/A   Overcast
8:53 PM 35.1 °F 23.8 °F 19.9 °F 54% 29.93 in 10.0 mi WNW 20.7 mph 31.1 mph N/A   Overcast
9:53 PM 35.1 °F 25.5 °F 21.0 °F 57% 29.96 in 10.0 mi WNW 15.0 mph 20.7 mph N/A   Overcast
10:53 PM 34.0 °F 24.2 °F 19.9 °F 56% 29.98 in 10.0 mi West 15.0 mph 26.5 mph N/A   Overcast
11:53 PM 33.1 °F 26.1 °F 19.0 °F 56% 30.01 in 10.0 mi West 8.1 mph - N/A   Mostly Cloudy